Weather History for Juneau, AK

Change the Weather History Date:

Tuesday, March 4, 2014

  Actual Average Record
Temperature  
Mean Temperature 19 °F 32 °F  
Max Temperature 22 °F 37 °F 49 °F (1957)
Min Temperature 16 °F 26 °F -2 °F (1951)
Degree Days  
Heating Degree Days 46 33  
Month to date heating degree days 162 133  
Since 1 July heating degree days 5803 5970  
Cooling Degree Days 0 0  
Month to date cooling degree days 0 0  
Year to date cooling degree days 0 0  
Moisture  
Dew Point -4 °F    
Average Humidity 37    
Maximum Humidity 43    
Minimum Humidity 31    
Precipitation  
Precipitation 0.00 in 0.14 in 0.58 in (1948)
Month to date precipitation 0.00 0.55  
Year to date precipitation 12.13 10.03  
Snow  
Snow 0.00 in 0.50 in 8.40 in (1971)
Month to date snowfall 0.0 2.1  
Since 1 July snowfall 90.8 76.1  
Snow Depth 3.00 in    
Sea Level Pressure  
Sea Level Pressure 30.11 in    
Wind  
Wind Speed 8 mph (ESE)    
Max Wind Speed 17 mph    
Max Gust Speed 20 mph    
Visibility 10 miles    
Events      
T = Trace of Precipitation, MM = Missing Value Source: NWS Daily Summary

Daily Weather History Graph

Daily Weather History Graph

Search for Another Location

Airport:

Trip Planner

Search our weather history database for the weather conditions in past years. The results will help you decide how hot, cold, wet, or windy it might be!

Date:

Astronomy

Mar. 04, 2014 Rise Set
Actual Time 6:44 AM AKST 5:36 PM AKST
Civil Twilight 6:05 AM AKST 6:15 PM AKST
Nautical Twilight 5:19 AM AKST 7:01 PM AKST
Astronomical Twilight 4:32 AM AKST 7:49 PM AKST
Moon 7:40 AM AKST (3/4) 10:54 PM AKST (3/4)
Length of Visible Light 12h 10m
Length of Day
10h 51m
Waxing Crescent, 16% of the Moon is Illuminated
Mar 4
Waxing Crescent
Mar 8
First Quarter
Mar 16
Full
Mar 23
Last Quarter
Mar 30
New

Hourly Weather History & Observations

Time (AKST) Temp. Windchill Dew Point Humidity Pressure Visibility Wind Dir Wind Speed Gust Speed Precip Events Conditions
12:53 AM 17.1 °F 10.0 °F -6.0 °F 36% 30.06 in 10.0 mi ENE 4.6 mph - N/A   Clear
1:53 AM 18.0 °F 9.8 °F -2.9 °F 40% 30.07 in 10.0 mi East 5.8 mph - N/A   Clear
3:53 AM 18.0 °F 9.8 °F -4.0 °F 38% 30.10 in 10.0 mi ENE 5.8 mph - N/A   Clear
4:53 AM 18.0 °F 6.9 °F -4.0 °F 38% 30.10 in 10.0 mi SE 9.2 mph - N/A   Clear
5:53 AM 18.0 °F 8.7 °F -7.1 °F 33% 30.11 in 10.0 mi East 6.9 mph - N/A   Clear
6:53 AM 17.1 °F 10.0 °F -6.0 °F 36% 30.12 in 10.0 mi ENE 4.6 mph - N/A   Partly Cloudy
7:53 AM 17.1 °F 10.0 °F -4.0 °F 39% 30.13 in 10.0 mi ENE 4.6 mph - N/A   Partly Cloudy
8:53 AM 19.0 °F 10.0 °F -4.0 °F 36% 30.14 in 10.0 mi East 6.9 mph - N/A   Partly Cloudy
9:53 AM 21.0 °F 9.3 °F -6.0 °F 30% 30.14 in 10.0 mi SE 11.5 mph - N/A   Partly Cloudy
10:53 AM 21.9 °F 9.8 °F -5.1 °F 30% 30.14 in 10.0 mi SE 12.7 mph - N/A   Partly Cloudy
11:53 AM 21.9 °F 8.7 °F -5.1 °F 30% 30.14 in 10.0 mi SSE 15.0 mph - N/A   Partly Cloudy
12:53 PM 21.9 °F 9.2 °F -5.1 °F 30% 30.14 in 10.0 mi SE 13.8 mph - N/A   Partly Cloudy
1:53 PM 21.9 °F 9.2 °F -4.0 °F 32% 30.13 in 10.0 mi SE 13.8 mph - N/A   Clear
2:53 PM 21.9 °F 9.8 °F -2.9 °F 34% 30.12 in 10.0 mi SE 12.7 mph - N/A   Clear
3:53 PM 21.9 °F 9.8 °F -4.0 °F 32% 30.12 in 10.0 mi SE 12.7 mph - N/A   Clear
4:53 PM 21.0 °F 8.1 °F -4.0 °F 33% 30.12 in 10.0 mi SE 13.8 mph - N/A   Clear
5:53 PM 19.9 °F 7.9 °F -5.1 °F 33% 30.12 in 10.0 mi SE 11.5 mph - N/A   Partly Cloudy
6:53 PM 18.0 °F 9.8 °F -2.9 °F 40% 30.12 in 10.0 mi ENE 5.8 mph - N/A   Clear
7:53 PM 16.0 °F 6.3 °F -0.9 °F 47% 30.11 in 10.0 mi ENE 6.9 mph - N/A   Clear
8:53 PM 16.0 °F 7.4 °F -2.0 °F 45% 30.11 in 10.0 mi ENE 5.8 mph - N/A   Clear
9:53 PM 12.9 °F 5.2 °F 1.0 °F 59% 30.10 in 10.0 mi East 4.6 mph - N/A   Clear
10:53 PM 10.9 °F - -0.0 °F 61% 30.09 in 10.0 mi Calm Calm - N/A   Clear
11:53 PM 8.1 °F - 1.0 °F 73% 30.07 in 10.0 mi Calm Calm - N/A   Clear